Time,TemperatureF,DewpointF,PressureIn,WindDirection,WindDirectionDegrees,WindSpeedMPH,WindSpeedGustMPH,Humidity,HourlyPrecipIn,Conditions,Clouds,dailyrainin,SoftwareType,DateUTC
2013-02-16 00:02:00,23.6,18.0,30.12,SW,226,0.0,-999.0,79,-99.99,,,0.00,weatherlink.com 1.10,2013-02-16 05:02:00,
2013-02-16 00:17:00,23.6,18.0,30.12,SW,226,0.0,-999.0,78,-99.99,,,0.00,weatherlink.com 1.10,2013-02-16 05:17:00,
2013-02-16 00:32:00,23.1,17.0,30.11,SW,225,0.0,-999.0,78,-99.99,,,0.00,weatherlink.com 1.10,2013-02-16 05:32:00,
2013-02-16 00:48:00,22.5,17.0,30.11,SW,226,0.0,-999.0,79,-99.99,,,0.00,weatherlink.com 1.10,2013-02-16 05:48:00,
2013-02-16 01:03:00,22.4,17.0,30.11,SW,225,0.0,-999.0,81,-99.99,,,0.00,weatherlink.com 1.10,2013-02-16 06:03:00,
2013-02-16 01:18:00,22.7,18.0,30.11,SW,225,0.0,-999.0,82,-99.99,,,0.00,weatherlink.com 1.10,2013-02-16 06:18:00,
2013-02-16 01:33:00,23.0,18.0,30.11,SW,225,0.0,-999.0,81,-99.99,,,0.00,weatherlink.com 1.10,2013-02-16 06:33:00,
2013-02-16 01:48:00,23.3,18.0,30.11,SW,226,0.0,-999.0,81,-99.99,,,0.00,weatherlink.com 1.10,2013-02-16 06:48:00,
2013-02-16 02:03:00,23.6,18.0,30.11,SW,226,0.0,-999.0,79,-99.99,,,0.00,weatherlink.com 1.10,2013-02-16 07:03:00,
2013-02-16 02:18:00,23.9,18.0,30.10,WSW,255,0.0,-999.0,78,-99.99,,,0.00,weatherlink.com 1.10,2013-02-16 07:18:00,
2013-02-16 02:33:00,24.0,18.0,30.10,West,281,1.0,-999.0,78,-99.99,,,0.00,weatherlink.com 1.10,2013-02-16 07:33:00,
2013-02-16 02:48:00,23.9,19.0,30.10,West,269,4.0,-999.0,80,-99.99,,,0.00,weatherlink.com 1.10,2013-02-16 07:48:00,
2013-02-16 03:03:00,23.6,20.0,30.09,WNW,289,2.0,-999.0,84,-99.99,,,0.00,weatherlink.com 1.10,2013-02-16 08:03:00,
2013-02-16 03:18:00,23.6,20.0,30.09,West,270,0.0,-999.0,84,-99.99,,,0.00,weatherlink.com 1.10,2013-02-16 08:18:00,
2013-02-16 03:34:00,23.4,19.0,30.08,West,269,0.0,-999.0,83,-99.99,,,0.00,weatherlink.com 1.10,2013-02-16 08:34:00,
2013-02-16 03:49:00,23.1,19.0,30.08,West,268,0.0,-999.0,84,-99.99,,,0.00,weatherlink.com 1.10,2013-02-16 08:49:00,
2013-02-16 04:04:00,23.2,19.0,30.08,WSW,257,0.0,-999.0,84,-99.99,,,0.00,weatherlink.com 1.10,2013-02-16 09:04:00,
2013-02-16 04:19:00,23.2,19.0,30.07,WSW,258,2.0,-999.0,83,-99.99,,,0.00,weatherlink.com 1.10,2013-02-16 09:19:00,
2013-02-16 04:34:00,23.2,18.0,30.07,West,271,1.0,-999.0,81,-99.99,,,0.00,weatherlink.com 1.10,2013-02-16 09:34:00,
2013-02-16 04:49:00,23.0,18.0,30.07,WSW,257,5.0,-999.0,81,-99.99,,,0.00,weatherlink.com 1.10,2013-02-16 09:49:00,
2013-02-16 05:04:00,22.9,18.0,30.07,West,269,4.0,-999.0,81,-99.99,,,0.00,weatherlink.com 1.10,2013-02-16 10:04:00,
2013-02-16 05:19:00,22.5,17.0,30.07,West,265,8.0,-999.0,80,-99.99,,,0.00,weatherlink.com 1.10,2013-02-16 10:19:00,
2013-02-16 05:34:00,22.2,17.0,30.07,WNW,282,0.0,-999.0,80,-99.99,,,0.00,weatherlink.com 1.10,2013-02-16 10:34:00,
2013-02-16 05:49:00,22.3,17.0,30.07,NW,311,6.0,-999.0,80,-99.99,,,0.00,weatherlink.com 1.10,2013-02-16 10:49:00,
2013-02-16 06:04:00,21.9,18.0,30.07,WNW,296,5.0,-999.0,83,-99.99,,,0.00,weatherlink.com 1.10,2013-02-16 11:04:00,
2013-02-16 06:20:00,21.6,18.0,30.07,West,275,5.0,-999.0,86,-99.99,,,0.00,weatherlink.com 1.10,2013-02-16 11:20:00,
2013-02-16 06:35:00,21.4,18.0,30.07,WNW,296,10.0,-999.0,86,-99.99,,,0.00,weatherlink.com 1.10,2013-02-16 11:35:00,
2013-02-16 06:50:00,21.1,17.0,30.07,WNW,295,5.0,-999.0,85,-99.99,,,0.00,weatherlink.com 1.10,2013-02-16 11:50:00,
2013-02-16 07:05:00,20.9,17.0,30.07,WNW,284,4.0,-999.0,84,-99.99,,,0.00,weatherlink.com 1.10,2013-02-16 12:05:00,
2013-02-16 07:20:00,20.7,16.0,30.07,WNW,302,5.0,-999.0,83,-99.99,,,0.00,weatherlink.com 1.10,2013-02-16 12:20:00,
2013-02-16 07:35:00,20.5,15.0,30.08,WNW,288,5.0,-999.0,80,-99.99,,,0.00,weatherlink.com 1.10,2013-02-16 12:35:00,
2013-02-16 07:50:00,20.3,15.0,30.08,WSW,251,4.0,-999.0,80,-99.99,,,0.00,weatherlink.com 1.10,2013-02-16 12:50:00,
2013-02-16 08:05:00,19.9,15.0,30.08,NW,306,6.0,-999.0,80,-99.99,,,0.00,weatherlink.com 1.10,2013-02-16 13:05:00,
2013-02-16 08:20:00,19.7,15.0,30.08,West,269,8.0,-999.0,80,-99.99,,,0.00,weatherlink.com 1.10,2013-02-16 13:20:00,
2013-02-16 08:35:00,20.1,15.0,30.08,West,259,5.0,-999.0,79,-99.99,,,0.00,weatherlink.com 1.10,2013-02-16 13:35:00,
2013-02-16 08:50:00,20.5,14.0,30.09,West,280,10.0,-999.0,77,-99.99,,,0.00,weatherlink.com 1.10,2013-02-16 13:50:00,
2013-02-16 09:06:00,20.8,14.0,30.09,West,261,4.0,-999.0,75,-99.99,,,0.00,weatherlink.com 1.10,2013-02-16 14:06:00,
2013-02-16 09:21:00,20.5,13.0,30.08,WNW,287,2.0,-999.0,73,-99.99,,,0.00,weatherlink.com 1.10,2013-02-16 14:21:00,
2013-02-16 09:36:00,21.0,13.0,30.09,West,269,18.0,-999.0,70,-99.99,,,0.00,weatherlink.com 1.10,2013-02-16 14:36:00,
2013-02-16 09:51:00,21.1,14.0,30.09,WNW,288,11.0,-999.0,73,-99.99,,,0.00,weatherlink.com 1.10,2013-02-16 14:51:00,
2013-02-16 10:06:00,21.1,14.0,30.09,NW,313,3.0,-999.0,74,-99.99,,,0.00,weatherlink.com 1.10,2013-02-16 15:06:00,
2013-02-16 10:21:00,21.7,14.0,30.09,West,267,5.0,-999.0,72,-99.99,,,0.00,weatherlink.com 1.10,2013-02-16 15:21:00,
2013-02-16 10:36:00,21.1,14.0,30.10,WNW,300,7.0,-999.0,74,-99.99,,,0.00,weatherlink.com 1.10,2013-02-16 15:36:00,
2013-02-16 10:51:00,22.5,15.0,30.10,WNW,301,5.0,-999.0,72,-99.99,,,0.00,weatherlink.com 1.10,2013-02-16 15:51:00,
2013-02-16 11:06:00,20.6,14.0,30.10,West,267,14.0,-999.0,75,-99.99,,,0.00,weatherlink.com 1.10,2013-02-16 16:06:00,
2013-02-16 11:21:00,20.8,14.0,30.10,West,271,10.0,-999.0,76,-99.99,,,0.00,weatherlink.com 1.10,2013-02-16 16:21:00,
2013-02-16 11:37:00,21.2,13.0,30.10,WNW,301,6.0,-999.0,71,-99.99,,,0.00,weatherlink.com 1.10,2013-02-16 16:37:00,
2013-02-16 11:51:00,21.4,13.0,30.10,NW,315,7.0,-999.0,70,-99.99,,,0.00,weatherlink.com 1.10,2013-02-16 16:51:00,
2013-02-16 12:06:00,20.8,13.0,30.10,NW,311,6.0,-999.0,72,-99.99,,,0.00,weatherlink.com 1.10,2013-02-16 17:06:00,
2013-02-16 12:21:00,21.3,13.0,30.10,WNW,294,7.0,-999.0,71,-99.99,,,0.00,weatherlink.com 1.10,2013-02-16 17:21:00,
2013-02-16 12:37:00,21.3,13.0,30.09,NW,304,13.0,-999.0,69,-99.99,,,0.00,weatherlink.com 1.10,2013-02-16 17:37:00,
2013-02-16 12:52:00,21.1,13.0,30.09,WNW,299,10.0,-999.0,71,-99.99,,,0.00,weatherlink.com 1.10,2013-02-16 17:52:00,
2013-02-16 13:07:00,20.6,11.0,30.09,NW,316,11.0,-999.0,67,-99.99,,,0.00,weatherlink.com 1.10,2013-02-16 18:07:00,
2013-02-16 13:22:00,20.5,11.0,30.09,WNW,292,6.0,-999.0,68,-99.99,,,0.00,weatherlink.com 1.10,2013-02-16 18:22:00,
2013-02-16 13:37:00,20.2,11.0,30.08,NW,305,17.0,-999.0,68,-99.99,,,0.00,weatherlink.com 1.10,2013-02-16 18:37:00,
2013-02-16 13:52:00,20.5,10.0,30.08,WNW,294,5.0,-999.0,65,-99.99,,,0.00,weatherlink.com 1.10,2013-02-16 18:52:00,
2013-02-16 14:07:00,20.6,10.0,30.09,NW,319,10.0,-999.0,63,-99.99,,,0.00,weatherlink.com 1.10,2013-02-16 19:07:00,
2013-02-16 14:22:00,19.4,9.0,30.09,NW,310,7.0,-999.0,64,-99.99,,,0.00,weatherlink.com 1.10,2013-02-16 19:22:00,
2013-02-16 14:37:00,20.1,9.0,30.09,WNW,284,5.0,-999.0,61,-99.99,,,0.00,weatherlink.com 1.10,2013-02-16 19:37:00,
2013-02-16 14:52:00,19.9,7.0,30.09,NW,309,9.0,-999.0,58,-99.99,,,0.00,weatherlink.com 1.10,2013-02-16 19:52:00,
2013-02-16 15:07:00,19.6,8.0,30.09,WNW,288,9.0,-999.0,62,-99.99,,,0.00,weatherlink.com 1.10,2013-02-16 20:07:00,
2013-02-16 15:22:00,19.1,10.0,30.10,West,263,9.0,-999.0,69,-99.99,,,0.00,weatherlink.com 1.10,2013-02-16 20:22:00,
2013-02-16 15:38:00,16.7,13.0,30.10,West,280,0.0,-999.0,85,-99.99,,,0.00,weatherlink.com 1.10,2013-02-16 20:38:00,
2013-02-16 15:53:00,17.2,12.0,30.10,WNW,298,0.0,-999.0,81,-99.99,,,0.00,weatherlink.com 1.10,2013-02-16 20:53:00,
2013-02-16 16:08:00,17.8,12.0,30.10,WNW,292,17.0,-999.0,79,-99.99,,,0.00,weatherlink.com 1.10,2013-02-16 21:08:00,
2013-02-16 16:23:00,17.7,13.0,30.11,WNW,302,8.0,-999.0,81,-99.99,,,0.00,weatherlink.com 1.10,2013-02-16 21:23:00,
2013-02-16 16:38:00,17.6,11.0,30.11,WNW,293,6.0,-999.0,76,-99.99,,,0.00,weatherlink.com 1.10,2013-02-16 21:38:00,
2013-02-16 16:53:00,17.4,11.0,30.11,WSW,249,8.0,-999.0,76,-99.99,,,0.00,weatherlink.com 1.10,2013-02-16 21:53:00,
2013-02-16 17:08:00,17.4,13.0,30.11,West,278,1.0,-999.0,82,-99.99,,,0.00,weatherlink.com 1.10,2013-02-16 22:08:00,
2013-02-16 17:23:00,16.7,12.0,30.11,WNW,302,7.0,-999.0,82,-99.99,,,0.00,weatherlink.com 1.10,2013-02-16 22:23:00,
2013-02-16 17:38:00,16.3,12.0,30.11,WNW,298,6.0,-999.0,84,-99.99,,,0.00,weatherlink.com 1.10,2013-02-16 22:38:00,
2013-02-16 17:53:00,16.7,12.0,30.12,NW,322,2.0,-999.0,82,-99.99,,,0.00,weatherlink.com 1.10,2013-02-16 22:53:00,
2013-02-16 18:09:00,16.5,12.0,30.12,NW,304,8.0,-999.0,81,-99.99,,,0.00,weatherlink.com 1.10,2013-02-16 23:09:00,
2013-02-16 18:23:00,16.3,12.0,30.12,WNW,289,0.0,-999.0,82,-99.99,,,0.00,weatherlink.com 1.10,2013-02-16 23:23:00,
2013-02-16 18:39:00,16.2,12.0,30.13,WNW,296,0.0,-999.0,83,-99.99,,,0.00,weatherlink.com 1.10,2013-02-16 23:39:00,
2013-02-16 18:54:00,16.3,12.0,30.13,WNW,302,2.0,-999.0,84,-99.99,,,0.00,weatherlink.com 1.10,2013-02-16 23:54:00,
2013-02-16 19:09:00,16.3,13.0,30.13,NW,306,0.0,-999.0,85,-99.99,,,0.00,weatherlink.com 1.10,2013-02-17 00:09:00,
2013-02-16 19:24:00,16.1,12.0,30.14,WNW,303,0.0,-999.0,84,-99.99,,,0.00,weatherlink.com 1.10,2013-02-17 00:24:00,
2013-02-16 19:39:00,15.7,12.0,30.14,WNW,299,7.0,-999.0,84,-99.99,,,0.00,weatherlink.com 1.10,2013-02-17 00:39:00,
2013-02-16 19:54:00,15.5,12.0,30.14,WNW,282,0.0,-999.0,84,-99.99,,,0.00,weatherlink.com 1.10,2013-02-17 00:54:00,
2013-02-16 20:09:00,15.0,11.0,30.14,WNW,282,0.0,-999.0,85,-99.99,,,0.00,weatherlink.com 1.10,2013-02-17 01:09:00,
2013-02-16 20:25:00,14.2,11.0,30.14,WNW,282,0.0,-999.0,86,-99.99,,,0.00,weatherlink.com 1.10,2013-02-17 01:25:00,
2013-02-16 20:39:00,13.7,11.0,30.14,WNW,282,0.0,-999.0,87,-99.99,,,0.00,weatherlink.com 1.10,2013-02-17 01:39:00,
2013-02-16 20:55:00,13.8,11.0,30.13,West,263,1.0,-999.0,88,-99.99,,,0.00,weatherlink.com 1.10,2013-02-17 01:55:00,
2013-02-16 21:09:00,13.6,11.0,30.13,West,265,1.0,-999.0,88,-99.99,,,0.00,weatherlink.com 1.10,2013-02-17 02:09:00,
2013-02-16 21:25:00,13.5,11.0,30.14,West,264,1.0,-999.0,88,-99.99,,,0.00,weatherlink.com 1.10,2013-02-17 02:25:00,
2013-02-16 21:40:00,13.7,11.0,30.14,West,278,6.0,-999.0,87,-99.99,,,0.00,weatherlink.com 1.10,2013-02-17 02:40:00,
2013-02-16 22:10:00,13.6,10.0,30.14,WNW,282,7.0,-999.0,86,-99.99,,,0.00,weatherlink.com 1.10,2013-02-17 03:10:00,
2013-02-16 22:25:00,13.9,10.0,30.14,WNW,283,0.0,-999.0,84,-99.99,,,0.00,weatherlink.com 1.10,2013-02-17 03:25:00,
2013-02-16 22:40:00,13.6,9.0,30.14,WNW,286,0.0,-999.0,83,-99.99,,,0.00,weatherlink.com 1.10,2013-02-17 03:40:00,
2013-02-16 22:55:00,13.3,9.0,30.14,WNW,284,0.0,-999.0,83,-99.99,,,0.00,weatherlink.com 1.10,2013-02-17 03:55:00,
2013-02-16 23:10:00,13.3,9.0,30.14,West,279,0.0,-999.0,83,-99.99,,,0.00,weatherlink.com 1.10,2013-02-17 04:10:00,
2013-02-16 23:25:00,13.5,9.0,30.14,WSW,248,4.0,-999.0,82,-99.99,,,0.00,weatherlink.com 1.10,2013-02-17 04:25:00,
2013-02-16 23:40:00,13.5,9.0,30.14,West,269,0.0,-999.0,82,-99.99,,,0.00,weatherlink.com 1.10,2013-02-17 04:40:00,
2013-02-16 23:55:00,13.4,9.0,30.14,West,274,0.0,-999.0,82,-99.99,,,0.00,weatherlink.com 1.10,2013-02-17 04:55:00,